Location: Gollag?dem
(17.0207°N, 80.7261°E)
Time: 16:13:26
(UTC+00:00)

SJ-6B - Pass Details

Date: 03 August 2024
Orbit: 483 x 543 km, 97.4° (Epoch: 12 September)

Event Time Altitude Azimuth Distance (km) Brightness Sun altitude
Exits shadow 14:06:51 - 165° (SSE) 1,859 5.2 -13.8°
Reaches altitude 10° 14:06:59 10° 165° (SSE) 1,801 5.1 -13.8°
Maximum altitude 14:10:53 80° 79° (E) 559 2.7 -14.7°
Drops below altitude 10° 14:14:50 10° 352° (N) 1,820 5.9 -15.6°
Sets 14:16:57 0° 351° (N) 2,715 6.8 -16.0°
